Location: Kings Park
(40.8862°N, 73.2573°W)
Time: 13:51:13
(UTC+00:00)

Daily predictions for brighter satellites

Satellite Brightness Start Highest point End
(mag) Time Altitude Azimuth Time Altitude Azimuth Time Altitude Azimuth
Cosmos 1726 Rocket 3.5 22:14:47 10° S 22:19:06 71° E 22:23:28 10° NNE
Okean O Rocket 1.6 22:14:51 10° SSE 22:19:12 79° ENE 22:23:34 10° N
SL-4 R/B 3.7 22:17:50 10° NNW 22:20:04 15° N 22:22:21 10° NE
Cosmos 44 4.1 22:16:26 10° SW 22:20:45 49° NW 22:25:23 10° NNE
Cosmos 1346 Rocket 4.3 22:19:37 10° NNE 22:22:14 17° ENE 22:24:49 10° ESE
Cosmos 2058 4.3 22:22:26 10° NNE 22:25:12 17° ENE 22:27:58 10° ESE
BREEZE-M R/B 4.4 22:23:46 10° NW 22:26:58 28° NNE 22:32:30 10° ENE
Cosmos 1758 Rocket 4.4 22:22:50 10° NNW 22:27:07 55° W 22:31:21 10° S
Atlas Centaur 2 4.0 22:22:10 10° SW 22:29:20 37° S 22:36:57 10° ESE
NOAA 11 4.2 22:24:52 10° SSE 22:30:11 58° ENE 22:35:31 10° N
YAOGAN 6 3.7 22:27:22 10° S 22:30:55 50° W 22:34:31 10° NNW
Cosmos 1315 Rocket 4.1 22:28:26 10° SE 22:31:18 19° E 22:34:12 10° NE
Cosmos 1606 Rocket 4.3 22:31:22 10° SSW 22:35:39 58° W 22:40:02 10° N
Aureole 3 2.6 22:33:56 10° S 22:37:02 63° E 22:39:59 10° NNE
Cosmos 1992 Rocket 4.5 22:32:49 10° SSE 22:37:35 38° ESE 22:42:22 10° NE
CORIOLIS 4.3 22:33:07 10° SSE 22:38:28 81° WSW 22:43:51 10° NNW
Cosmos 220 Rocket 4.5 22:35:33 10° S 22:39:36 40° ESE 22:43:44 10° NE
Cosmos 1980 Rocket 3.4 22:36:34 10° SSE 22:40:41 21° E 22:44:48 10° NE
Cosmos 1455 3.3 22:37:46 10° SE 22:40:47 23° E 22:43:50 10° NE
USA 305 4.0 22:40:11 10° NW 22:43:56 29° NNE 22:46:41 15° E
Cosmos 2297 Rocket 2.2 22:39:34 10° NNW 22:45:15 70° ENE 22:50:52 10° SSE
CZ-2C R/B 4.0 22:40:25 10° SE 22:45:20 30° ENE 22:50:07 10° N
In-Cosmos 22 Rocket 4.1 22:41:43 10° N 22:47:03 61° ENE 22:52:30 10° SSE
SKYMED 2 3.6 22:45:23 10° NNE 22:49:42 59° E 22:53:57 10° S
USA 306 3.9 22:46:40 10° NW 22:50:30 31° NNE 22:52:55 18° E
Okean-O 3.1 22:52:44 10° SE 22:56:50 39° ENE 23:00:57 10° N
Meteor 2-10 Rocket 3.6 22:52:12 10° S 22:57:21 54° E 23:02:21 10° NNE
SeaSat 1 4.2 23:00:01 14° NE 23:00:17 14° NE 23:02:42 10° NNE
Cosmos 1553 Rocket 4.0 22:55:41 10° S 23:02:01 80° E 23:08:18 10° N
Cosmos 1689 Rocket 1.8 22:59:58 10° NNE 23:02:51 83° E 23:05:43 10° S
Cosmos 1408 3.0 22:59:47 10° N 23:03:16 40° ENE 23:06:44 10° SSE
Meteor 2-15 4.4 22:57:46 10° S 23:03:50 66° E 23:09:55 10° NNE
Cosmos 2360 4.4 22:58:56 10° S 23:04:25 51° ESE 23:09:57 10° NE
H-2A R/B 2.9 22:59:53 10° SE 23:04:31 30° ENE 23:09:11 10° N
MOS 1 Rocket 4.0 23:04:04 10° NNE 23:08:24 33° E 23:12:57 10° SSE
Cosmos 44 Rocket 3.3 23:08:27 10° SSW 23:13:04 56° ESE 23:16:15 20° NE
Cosmos 2058 Rocket 4.3 23:09:50 10° SSW 23:14:09 46° WNW 23:18:30 10° N
Cosmos 2278 4.0 23:09:04 10° S 23:14:24 43° ESE 23:18:42 15° NE
Lacrosse 5 3.9 23:13:30 10° NNW 23:16:02 14° N 23:17:47 12° NNE
Cosmos 2219 3.8 23:13:28 10° NNW 23:19:08 59° WSW 23:24:45 10° S
Cosmos 1892 3.0 23:18:05 10° NNW 23:21:58 70° W 23:25:49 10° S
Cosmos 1939 Rocket 3.4 23:18:53 10° S 23:22:47 59° W 23:26:40 10° NNW
ARGOS 3.8 23:21:55 29° E 23:22:59 32° ENE 23:27:44 10° N
Cosmos 1076 Rocket 3.4 23:20:58 10° N 23:25:10 58° E 23:29:22 10° SSE
Cosmos 968 Rocket 3.6 23:20:43 10° NNW 23:25:55 75° WSW 23:31:02 10° S
Cosmos 2082 3.6 23:20:35 10° NNW 23:26:19 68° ENE 23:31:55 10° SSE
CZ-4B R/B 4.4 23:25:05 10° NNW 23:27:04 16° WNW 23:29:02 10° WSW
Cosmos 1745 Rocket 4.0 23:25:16 10° N 23:31:36 88° ENE 23:37:58 10° S
NOSS 3-3 (A) 4.1 23:26:41 10° SW 23:32:25 69° NW 23:38:33 12° NNE
NOSS 3-3 (C) 4.1 23:26:48 10° SW 23:32:32 70° NW 23:38:38 12° NNE
USA 307 3.0 23:30:20 10° NW 23:34:34 56° NE 23:35:04 52° ENE
Cosmos 1825 2.0 23:33:10 10° N 23:36:57 69° E 23:37:06 68° ESE
COSMO-SKYMED 1 3.9 23:33:36 10° N 23:37:40 40° WNW 23:41:43 10° SW
Cosmos 2369 3.8 23:33:12 10° SSW 23:38:54 77° WNW 23:44:38 10° NNE
USA 308 2.9 23:35:18 10° NW 23:39:33 61° NE 23:39:51 59° ENE
GPS 2-04 Rocket1 3.6 23:37:18 10° WSW 23:41:01 35° S 23:41:13 35° SSE
Helios 1A Rocket 3.5 23:37:21 10° S 23:41:24 57° WSW 23:45:27 10° NNW
DELTA 2 R/B(2) 4.5 23:35:21 10° W 23:41:29 75° S 23:41:35 74° SSE
CSL-04 Rocket 3.6 23:39:13 10° SSE 23:44:36 66° ENE 23:50:04 10° N
CZ-2D R/B 4.5 23:42:14 10° S 23:45:51 42° W 23:49:29 10° NNW
OAO 2 Rocket 4.0 23:41:15 10° WSW 23:45:57 42° S 23:46:58 37° SSE
YAOGAN 1 2.7 23:43:05 10° S 23:47:24 75° WSW 23:51:44 10° NNW
ATLAS 2AS CENTAUR R/B 3.4 23:40:54 10° NNW 23:47:41 35° NE 23:48:38 34° ENE
Cosmos 2227 Rocket 3.4 23:44:22 10° NW 23:49:40 42° WSW 23:54:57 10° S
CZ-4 R/B 2.1 23:47:43 10° S 23:51:31 51° W 23:55:17 10° NNW
Cosmos 2263 Rocket 3.3 23:46:33 10° N 23:50:16 28° NNE 23:50:16 28° NNE
Cosmos 1812 Rocket 4.0 23:50:01 10° SSW 23:54:22 60° W 23:58:42 10° N
